CAPE
272 873 1071 1333 1386 1244 1080 993 960 1063 1324 1596 1781 1892 1924 1956 1906 1878 1984 2060 2180 2179 1900 1989 1764 1809 1741 2076 1925 1590 1582 1373 1321 1079 907 871 1223 1374 1350 1401 1283 940 1163
384 1010 1110 1314 1318 1242 1193 1120 1127 1254 1517 1725 1722 1712 1821 1876 1919 1968 2007 2005 2038 2090 1753 1996 1644 1775 1741 1850 1580 1695 1500 1276 1225 1230 1171 1123 1078 1213 1255 1194 1225 1087 1085
792 1068 1130 1235 1283 1307 1374 1358 1422 1550 1677 1769 1753 1727 1785 1865 1848 1886 1981 1979 2047 2038 1804 1875 2016 1733 1766 1567 1472 1472 1337 1163 1099 1037 880 741 666 1269 1311 1276 1241 1323 1258
851 1089 1174 1211 1274 1355 1413 1475 1561 1681 1714 1720 1780 1818 1873 1936 1908 1900 1910 1847 2032 2021 1961 1646 1752 1904 1685 1472 1478 1347 1213 1075 1044 1056 650 819 915 1221 1209 1105 1193 1165 1093
858 1035 1122 1196 1272 1364 1431 1538 1614 1665 1593 1587 1700 1874 1951 1968 1868 1699 1528 1604 1861 2060 2085 1870 1882 1860 1432 1262 1295 1326 1200 1008 850 780 585 961 958 1041 1148 1006 1082 1102 926
903 964 1004 1118 1276 1389 1497 1651 1720 1561 1454 1424 1558 1833 1956 1788 1594 1138 1152 1468 1882 1958 2012 2067 1940 1434 1070 1072 1108 1072 1016 964 793 651 456 767 1151 1107 1142 910 990 910 834
938 964 946 1017 1144 1399 1657 1769 1626 1417 1336 1375 1487 1615 1687 1597 1247 880 942 1321 1580 1636 1837 1810 1474 1139 902 914 932 926 873 828 756 586 487 611 781 1141 1031 870 971 812 722
907 945 939 1010 1119 1282 1576 1666 1514 1340 1274 1338 1286 1319 1471 1312 961 739 881 1155 1235 1115 1025 1197 1121 920 812 773 772 763 785 719 668 420 507 711 946 1025 785 695 803 648 533
803 844 911 1023 1206 1291 1434 1527 1460 1361 1284 1323 1141 1126 1154 979 685 540 634 720 723 854 838 916 834 771 697 627 594 612 658 634 574 570 549 692 886 929 814 601 546 489 393
734 836 904 986 1188 1318 1306 1443 1459 1431 1365 1280 1056 957 946 700 448 265 203 404 588 637 684 824 740 800 729 603 569 556 576 535 423 435 467 561 970 974 809 559 335 319 235
686 808 828 935 1175 1263 1281 1373 1469 1473 1444 1227 989 823 679 420 264 86 3 210 427 418 482 581 665 821 680 616 648 557 506 427 410 372 419 693 888 718 763 605 374 296 169
454 594 685 1049 1120 1249 1189 1352 1356 1357 1430 1343 979 729 455 191 63 0 0 39 191 238 400 323 469 606 580 579 571 550 465 351 369 394 454 549 766 692 756 622 433 249 107
787 490 887 1137 1078 1417 1280 1219 1227 1345 1356 1359 1154 739 506 279 57 0 0 7 20 108 310 355 403 550 548 444 358 383 368 294 345 407 442 435 631 792 768 583 415 243 75
1273 983 611 1096 1128 1268 1123 1186 1173 1218 1291 1656 1233 891 552 284 0 0 0 0 0 21 506 296 340 425 411 339 225 331 313 288 295 346 358 302 438 745 705 507 382 209 91
1178 1491 1142 746 1166 1429 1195 1159 989 1065 999 1304 1486 996 651 385 0 0 0 0 0 10 183 230 315 364 384 320 233 241 286 297 244 210 272 266 273 512 722 435 288 100 66
825 1196 1473 1237 811 1037 1087 976 847 908 863 1634 1392 980 759 457 0 4 0 0 0 0 33 146 514 346 317 311 245 196 251 189 143 144 211 174 185 240 374 524 312 193 85
46 858 1390 1566 1274 964 979 805 843 759 847 1676 1132 978 851 501 46 20 35 4 0 0 33 262 249 83 134 183 202 148 110 81 88 91 47 75 89 128 167 278 392 277 152
0 0 1368 1531 1434 1191 909 758 704 751 670 1407 950 1354 819 621 325 80 112 32 50 5 53 168 32 40 67 115 81 108 237 56 64 42 17 52 91 108 142 131 151 202 233
0 0 754 1733 1549 1509 1265 999 786 663 937 1110 1346 1502 999 732 605 271 146 150 77 20 21 16 8 18 25 60 70 50 69 53 67 39 24 43 55 84 90 62 38 45 81
0 0 4 1716 1757 1624 1667 1448 1264 733 807 1017 1263 1494 1427 941 717 601 348 358 132 114 88 30 29 1 6 26 47 44 26 44 66 39 8 18 65 55 59 8 1 6 33
0 0 0 1565 1960 1928 1911 1766 1634 1256 855 976 965 1160 1222 1510 1021 814 639 477 412 205 305 81 49 8 0 5 18 18 6 0 18 17 10 22 23 59 33 3 0 0 19
0 0 0 906 1951 2119 2046 1906 1865 1773 1229 995 877 992 1089 1381 1236 860 853 713 577 313 405 330 127 40 10 0 2 6 0 1 1 2 11 20 29 59 28 1 0 0 5
0 0 0 0 1530 2154 2178 2109 1982 1894 1562 1318 1199 1117 1405 1332 1110 855 963 862 742 571 590 465 288 162 76 0 1 13 8 0 1 0 3 8 37 36 34 3 0 0 0
0 0 0 0 111 1819 2171 2121 1873 1830 1660 1470 1466 1369 1620 1492 970 1090 1157 1046 942 861 778 579 413 285 173 30 11 21 16 5 0 0 0 0 14 32 22 7 0 0 0
0 0 0 0 0 735 2065 2095 1896 1781 1708 1642 1597 1461 1496 1516 1190 1462 1511 1434 1200 1077 630 534 498 312 219 104 42 31 23 58 10 6 2 0 11 9 31 3 1 0 0
0 0 0 0 0 614 1930 2116 1938 1807 1720 1681 1625 1608 2150 1995 1498 1831 1745 1662 1344 1110 1145 729 423 337 289 155 131 57 67 103 10 17 13 3 9 18 37 8 8 12 0
CIN
-648 -412 -305 -221 -207 -216 -227 -212 -197 -179 -155 -122 -91 -69 -44 -33 -26 -15 -3 -0 -0 0 0 0 -5 -7 -10 -2 -5 -15 -14 -25 -17 -17 -5 -2 -9 -2 0 -0 -1 -2 -0
-693 -425 -309 -224 -195 -205 -211 -192 -161 -132 -102 -75 -69 -52 -38 -35 -21 -12 -3 -1 -0 0 -0 -0 -10 -9 -9 -11 -20 -15 -21 -36 -39 -27 -13 -1 -7 0 0 -1 -0 -0 -0
-559 -409 -315 -244 -200 -176 -158 -155 -112 -86 -64 -46 -35 -34 -32 -27 -23 -10 -2 -2 -0 0 -1 -3 -3 -10 -11 -21 -25 -31 -36 -52 -40 -46 -43 -15 -15 -0 -1 -0 0 0 0
-579 -435 -337 -274 -218 -166 -157 -151 -109 -77 -56 -32 -21 -19 -20 -18 -13 -5 -5 -5 -1 0 -0 -2 -3 -5 -15 -32 -24 -36 -34 -33 -27 -9 -31 -6 -4 0 -1 0 0 0 0
-588 -478 -374 -302 -235 -183 -164 -149 -111 -87 -84 -52 -25 -8 -4 -1 -4 -14 -22 -10 -4 -0 -0 -0 -3 -6 -27 -53 -35 -26 -24 -22 -32 -37 -34 0 -0 -0 0 -0 0 0 0
-566 -498 -430 -368 -272 -205 -144 -130 -100 -109 -110 -73 -37 -11 -0 -1 -10 -49 -37 -12 -2 -1 -0 -0 -2 -23 -54 -43 -32 -40 -37 -21 -29 -27 -41 -17 0 0 0 0 0 -0 -3
-579 -509 -460 -412 -353 -237 -137 -130 -139 -150 -138 -103 -49 -26 -5 -7 -30 -62 -43 -15 -7 -7 -4 -6 -20 -34 -70 -37 -32 -20 -21 -22 -26 -22 -36 -19 -4 -0 0 0 0 -2 -9
-559 -520 -481 -429 -404 -300 -186 -181 -200 -204 -174 -125 -96 -60 -23 -28 -50 -63 -44 -22 -22 -31 -35 -35 -35 -35 -70 -43 -33 -18 -22 -36 -22 -44 -23 -8 -1 0 0 -0 0 -2 -2
-564 -517 -469 -401 -356 -319 -271 -240 -240 -233 -207 -147 -139 -100 -61 -55 -70 -74 -57 -40 -41 -40 -41 -37 -51 -46 -65 -59 -39 -32 -35 -32 -32 -32 -33 -8 -3 -1 0 -7 0 -0 -2
-575 -528 -478 -417 -344 -288 -297 -275 -251 -247 -221 -171 -169 -129 -82 -87 -97 -107 -121 -68 -40 -38 -40 -41 -52 -22 -31 -40 -69 -29 -47 -44 -52 -61 -30 -26 -4 -0 0 -0 0 0 -0
-528 -553 -508 -446 -360 -334 -308 -278 -242 -247 -224 -211 -188 -163 -140 -145 -137 -172 -226 -109 -47 -55 -37 -38 -42 -18 -31 -30 -41 -52 -50 -42 -41 -46 -42 -9 -1 0 0 -1 0 0 -3
-459 -414 -462 -407 -344 -340 -331 -276 -266 -265 -229 -211 -219 -203 -204 -184 -229 -0 0 -216 -87 -70 -44 -49 -39 -30 -41 -42 -51 -48 -45 -63 -44 -47 -30 -11 -2 -0 0 -2 -2 -1 -7
-355 -446 -361 -273 -304 -269 -305 -295 -303 -271 -240 -208 -206 -205 -208 -204 -247 0 0 -154 -193 -94 -31 -27 -28 -22 -21 -41 -72 -84 -69 -66 -56 -44 -21 -17 -9 -0 -3 -4 -3 -2 -12
-228 -316 -428 -301 -277 -233 -313 -312 -303 -308 -266 -174 -213 -213 -200 -211 0 0 0 0 0 -177 -19 -35 -42 -34 -34 -41 -85 -64 -56 -63 -48 -41 -29 -27 -12 -1 -1 -2 -2 -1 -7
-181 -186 -270 -387 -263 -197 -264 -284 -308 -284 -311 -236 -183 -229 -215 -207 0 0 0 0 0 -83 -80 -52 -50 -40 -48 -47 -64 -57 -42 -33 -46 -63 -41 -25 -21 -9 -1 -2 0 -3 -12
-146 -162 -183 -211 -369 -285 -278 -355 -368 -327 -295 -171 -204 -248 -237 -201 0 -180 0 0 0 -3 -129 -85 -33 -47 -48 -53 -55 -50 -34 -42 -64 -51 -37 -38 -24 -15 -12 -1 -0 0 -7
-41 -259 -221 -171 -178 -344 -301 -339 -372 -380 -329 -166 -240 -252 -231 -223 -237 -335 -212 -280 0 0 -35 -50 -58 -70 -50 -54 -46 -66 -38 -57 -40 -34 -28 -22 -18 -18 -15 -10 -1 -1 -0
0 0 -259 -271 -152 -132 -392 -370 -378 -355 -387 -211 -261 -179 -259 -237 -201 -221 -224 -255 -201 -259 -90 -83 -104 -69 -68 -46 -40 -45 -23 -48 -40 -28 -0 -13 -15 -34 -7 -6 -11 -7 -1
0 0 -348 -285 -258 -164 -102 -82 -74 -372 -296 -268 -193 -159 -228 -227 -211 -205 -209 -176 -243 -221 -139 -130 -113 -7 -68 -43 -25 -30 -30 -22 -24 -5 -1 -10 -15 -20 -31 -12 -8 -17 -37
0 0 -426 -260 -275 -273 -171 -105 -70 -130 -281 -278 -225 -171 -153 -212 -204 -194 -186 -163 -183 -193 -120 -148 -112 -3 -80 -52 -21 -14 -16 -14 -6 -3 -5 -4 -13 -6 -27 -16 -2 -15 -13
0 0 0 -258 -241 -212 -185 -129 -89 -79 -324 -302 -302 -210 -185 -132 -179 -176 -156 -154 -144 -199 -105 -129 -101 -30 0 -1 -15 -1 -4 0 -7 -17 -3 -17 -0 -3 -7 -18 0 0 -20
0 0 0 -273 -209 -200 -174 -192 -125 -80 -84 -308 -300 -255 -202 -156 -150 -175 -142 -129 -129 -149 -110 -92 -102 -96 -40 0 -1 -16 0 0 0 -9 -7 -7 -3 -0 -9 -18 0 0 -17
0 0 0 0 -203 -199 -182 -155 -156 -128 -114 -141 -203 -243 -206 -178 -177 -183 -129 -104 -101 -105 -102 -91 -80 -74 -62 0 -1 -1 -1 0 0 0 0 -21 -6 0 -7 -19 0 0 0
0 0 0 0 -200 -218 -149 -138 -167 -194 -170 -133 -182 -269 -180 -169 -223 -143 -93 -64 -62 -58 -62 -80 -65 -64 -55 -62 -7 -2 -2 0 -1 0 0 0 -2 -2 -11 -4 0 0 0
0 0 0 0 0 -244 -145 -160 -164 -180 -224 -246 -200 -204 -188 -179 -188 -92 -46 -16 -31 -33 -72 -72 -48 -61 -63 -56 -58 -7 -1 -7 0 -3 -5 -1 -11 -2 0 0 -7 -2 0
0 0 0 0 0 -265 -141 -145 -144 -160 -219 -200 -196 -135 -103 -123 -152 -66 -36 -25 -22 -18 -20 -36 -66 -54 -50 -62 -54 -72 -47 -9 -1 0 -0 -12 -20 -0 0 -1 -0 -72 0
Wind_Speed
23 34 41 39 39 39 38 32 28 27 28 28 28 29 30 31 33 34 35 34 34 34 34 32 29 30 29 30 26 26 26 25 25 28 30 29 30 24 31 31 30 14 19
38 39 46 44 39 39 39 35 30 28 29 31 29 30 31 33 35 34 33 34 34 34 34 28 29 29 28 31 29 26 29 27 28 35 34 31 34 32 29 22 21 18 21
37 41 44 47 42 39 39 37 33 30 30 32 31 32 33 35 33 32 30 30 33 34 31 30 32 29 26 30 33 28 32 33 33 37 35 21 3 20 27 24 23 24 26
40 42 43 45 42 39 40 38 35 32 32 32 33 34 34 32 30 30 29 28 30 32 28 26 30 23 24 28 26 28 29 32 32 34 29 29 22 28 29 29 29 29 29
40 44 44 45 40 39 40 38 34 31 32 31 33 34 32 31 29 29 27 26 28 30 26 25 26 24 25 30 25 26 32 32 33 33 30 26 24 29 32 33 31 28 24
39 42 48 48 43 41 39 39 34 30 29 28 27 29 28 29 30 29 27 24 26 27 26 25 24 25 23 27 22 31 32 33 34 32 28 27 25 33 33 31 30 26 24
40 42 44 48 49 41 39 39 37 31 27 27 26 26 25 27 29 28 29 27 26 29 26 27 26 22 22 20 26 28 29 32 29 29 28 27 27 32 32 31 26 25 24
45 42 41 43 49 44 39 40 37 33 29 28 27 25 24 25 26 27 27 26 26 27 26 26 25 18 22 20 24 25 26 29 30 29 27 28 28 30 29 29 24 23 23
46 39 36 32 35 39 39 38 36 34 30 29 26 24 23 23 25 26 26 25 24 23 25 24 23 19 18 20 22 22 27 25 27 27 24 21 26 28 27 25 25 22 23
52 45 42 31 31 34 34 36 34 34 30 28 26 25 23 24 25 23 24 26 25 22 25 24 23 19 18 17 24 26 32 26 23 23 23 20 27 28 25 23 23 24 23
43 39 37 28 30 34 29 28 30 34 32 28 23 23 23 17 19 nan nan 29 25 21 21 19 23 21 19 16 21 25 27 22 17 16 18 21 25 26 22 24 21 22 22
48 40 32 33 24 30 24 26 28 27 26 23 21 20 18 18 nan nan nan nan 26 21 18 19 22 23 16 11 15 21 17 18 15 16 19 21 22 23 22 24 22 21 19
50 45 40 30 20 21 20 22 23 26 26 23 22 20 18 18 nan nan nan nan nan 18 14 17 17 15 12 10 13 13 12 14 13 15 16 20 23 25 25 23 24 19 nan
51 48 48 42 35 21 23 23 26 28 25 23 21 21 19 17 nan nan nan nan nan nan 16 16 14 15 11 10 14 15 17 13 13 16 17 19 21 24 25 23 21 19 nan
56 54 47 51 44 33 27 23 24 25 24 23 21 20 20 19 nan nan nan nan nan nan 14 14 14 14 12 10 12 17 19 13 15 13 16 17 19 22 26 25 20 19 nan
51 53 58 54 50 45 32 25 21 24 24 22 21 20 20 21 nan nan nan nan nan nan nan 15 14 14 15 11 10 16 17 13 16 18 17 18 18 18 23 23 18 18 nan
nan 49 58 55 57 49 35 30 26 26 25 22 22 21 20 22 nan nan nan nan nan nan nan 14 15 nan 18 14 13 14 18 nan nan nan nan nan nan 23 19 21 15 16 21
nan nan 53 54 55 48 37 30 33 26 26 25 23 22 22 22 23 nan 20 nan nan nan nan 15 nan nan nan 18 nan 12 14 nan nan nan nan nan nan 20 18 21 17 18 21
nan nan 60 61 58 54 46 31 32 29 26 28 24 23 23 23 23 24 22 21 nan nan nan nan nan nan nan nan nan nan nan nan nan nan nan nan nan nan nan nan nan nan nan
nan nan nan 52 54 54 53 42 35 36 30 30 26 24 26 23 24 25 24 24 22 16 nan nan nan nan nan nan nan nan nan nan nan nan nan nan nan nan nan nan nan nan nan
nan nan nan 62 55 57 55 44 35 30 30 29 29 24 28 28 26 26 25 26 25 19 18 nan nan nan nan nan nan nan nan nan nan nan nan nan nan nan nan nan nan nan nan
nan nan nan 61 59 56 56 48 38 30 31 32 35 30 28 29 28 28 27 25 27 24 20 21 20 nan nan nan nan nan nan nan nan nan nan nan nan nan nan nan nan nan nan
nan nan nan nan 55 50 53 54 52 45 47 41 37 34 29 29 31 30 29 26 29 27 24 21 21 23 nan nan nan nan nan nan nan nan nan nan nan nan nan nan nan nan nan
nan nan nan nan 60 59 56 54 47 39 38 34 30 29 32 37 36 32 31 30 30 29 26 25 22 22 24 nan nan nan nan nan nan nan nan nan nan nan nan nan nan nan nan
nan nan nan nan nan 71 58 53 49 40 36 39 37 34 32 39 41 35 32 32 29 29 27 29 28 25 24 24 nan nan nan nan nan nan nan nan nan nan nan nan nan nan nan
nan nan nan nan nan 67 62 56 51 37 40 45 41 38 37 41 45 39 33 32 30 29 29 28 31 29 29 26 25 nan nan 25 nan nan nan nan nan nan nan nan nan nan nan
Wind_Direction
319 317 318 316 320 320 312 304 298 295 296 293 294 299 305 311 312 315 317 320 320 319 318 314 311 301 295 286 278 269 260 256 258 272 281 281 266 278 271 247 300 336 289
309 314 316 315 320 321 313 307 298 294 295 292 294 298 301 305 309 313 320 323 321 319 320 313 312 299 294 278 264 262 258 257 255 261 266 273 292 265 296 298 294 290 288
304 306 311 312 318 319 314 310 302 297 298 297 298 298 301 306 312 318 326 325 320 321 322 324 318 308 292 289 266 254 254 255 257 263 263 257 298 293 288 284 283 287 287
304 302 300 307 316 317 319 316 309 301 300 300 302 303 305 309 314 322 328 327 323 322 324 324 327 314 302 289 266 259 256 256 260 263 259 264 290 291 286 288 288 288 279
292 289 294 305 313 317 322 320 314 305 302 302 303 306 309 310 314 319 321 323 325 326 324 325 339 320 302 291 263 253 247 253 256 257 258 263 269 283 289 288 288 283 278
283 291 298 307 312 315 321 321 316 311 308 304 303 306 308 310 314 316 318 318 324 329 330 323 325 314 310 294 262 252 252 253 248 248 254 265 267 282 285 287 285 279 277
280 287 295 306 309 311 321 319 316 313 311 307 303 302 308 309 313 315 322 324 321 327 327 321 318 318 308 304 264 251 248 249 245 247 255 257 268 283 287 285 281 282 279
277 284 291 305 306 310 320 318 315 313 310 307 305 306 308 310 315 321 323 327 326 327 328 318 311 307 298 302 280 249 247 248 246 250 251 252 275 284 287 287 282 281 279
269 278 279 286 299 308 313 314 313 313 310 308 308 307 312 314 319 325 325 325 328 331 327 316 313 300 305 302 297 256 251 249 247 250 256 256 280 284 289 291 283 277 280
266 271 275 271 292 296 306 308 309 310 308 306 307 306 312 315 322 325 327 326 330 332 331 316 307 303 305 303 295 282 263 250 244 251 249 251 280 284 284 288 288 283 278
265 280 280 288 292 288 298 301 302 305 306 305 306 306 304 304 315 nan nan 330 333 331 326 315 309 312 306 289 290 282 272 248 235 239 241 267 278 286 293 285 285 287 289
270 266 274 285 291 290 287 283 282 291 294 297 301 304 305 305 nan nan nan nan 335 329 327 312 309 306 295 293 288 288 274 250 242 237 236 266 282 290 292 290 292 291 292
273 273 278 271 268 278 281 272 271 279 288 292 296 297 297 300 nan nan nan nan nan 319 311 305 293 285 291 299 288 266 285 257 242 239 246 269 278 291 291 290 285 289 nan
271 271 272 272 272 256 258 270 272 280 282 286 293 295 294 294 nan nan nan nan nan nan 319 317 304 292 291 301 293 265 261 251 250 243 254 272 279 286 289 285 287 289 nan
266 267 269 277 279 270 265 255 266 270 278 280 288 290 292 295 nan nan nan nan nan nan 314 316 306 299 294 299 288 275 266 246 257 250 255 282 274 279 284 288 288 286 nan
264 269 273 273 279 287 272 266 255 262 267 275 278 285 290 291 nan nan nan nan nan nan nan 321 313 307 289 280 290 282 265 254 236 247 247 254 257 265 280 284 289 291 nan
nan 257 269 278 285 282 291 267 254 251 262 265 273 282 282 284 nan nan nan nan nan nan nan 305 302 nan 288 280 262 266 243 nan nan nan nan nan nan 272 271 268 273 284 289
nan nan 262 269 276 282 282 269 257 246 253 256 263 270 280 279 286 nan 287 nan nan nan nan 307 nan nan nan 297 nan 273 256 nan nan nan nan nan nan 261 266 260 258 273 276
nan nan 251 261 270 276 275 262 253 249 243 249 256 263 277 277 280 283 283 282 nan nan nan nan nan nan nan nan nan nan nan nan nan nan nan nan nan nan nan nan nan nan nan
nan nan nan 248 263 269 265 254 246 249 244 246 254 262 275 272 276 277 276 284 283 290 nan nan nan nan nan nan nan nan nan nan nan nan nan nan nan nan nan nan nan nan nan
nan nan nan 252 258 255 258 253 248 256 260 253 257 267 270 272 277 276 274 283 281 285 290 nan nan nan nan nan nan nan nan nan nan nan nan nan nan nan nan nan nan nan nan
nan nan nan 246 251 252 255 256 244 252 246 245 250 258 266 272 279 275 277 280 283 276 282 282 276 nan nan nan nan nan nan nan nan nan nan nan nan nan nan nan nan nan nan
nan nan nan nan 246 247 256 249 232 244 237 239 247 253 269 276 274 274 274 271 275 274 277 285 283 285 nan nan nan nan nan nan nan nan nan nan nan nan nan nan nan nan nan
nan nan nan nan 242 247 249 250 245 241 247 243 260 258 258 274 271 270 271 271 275 274 278 281 279 279 283 nan nan nan nan nan nan nan nan nan nan nan nan nan nan nan nan
nan nan nan nan nan 244 246 248 253 236 242 246 243 256 255 262 265 266 269 274 275 273 279 286 285 283 283 288 nan nan nan nan nan nan nan nan nan nan nan nan nan nan nan
nan nan nan nan nan 238 244 254 256 245 244 246 245 247 250 255 258 262 263 268 269 272 276 279 284 292 290 287 286 nan nan 302 nan nan nan nan nan nan nan nan nan nan nan